Back to catalog

HAWK-6C

AliveScienceVLEO
NORAD 55326·PAYLOAD·🇺🇸 United States

Launched Jan 24, 2023 from Wallops Flight Facility

Loading…

Next Passes (next 24 hours)

TLE

FreshSource: Space-Track

Epoch: Sep 14, 2026, 03:34 UTC

1 55326U 23011C   26257.14924168  .00003883  00000-0  16683-3 0  9994
2 55326  40.4964 189.7379 0004365 282.1255  77.9066 15.23599909201423

Track HAWK-6C in real time with AllMySat

Download on the App Store